Location: *
(33.8649°S, 62.1526°E)
Time: 10:10:41
(UTC+00:00)

Tiangong - Pass Details

Date: 30 September 2021
Orbit: 382 x 385 km, 41.5° (Epoch: 17 October)

Event Time Altitude Azimuth Distance (km) Brightness Sun altitude
Rises 14:49:21 0° 240° (WSW) 2,292 6.6 -12.3°
Reaches altitude 10° 14:51:33 10° 230° (SW) 1,434 5.0 -12.7°
Maximum altitude 14:54:33 34° 163° (SSE) 667 2.2 -13.4°
Enters shadow 14:56:03 22° 112° (ESE) 919 2.5 -13.7°
